Tracking 34223 objects as of 31-May-2026
HD Live streaming from Space Station
objects crossing your sky now

RCM-3

Track RCM-3 now!
10-day predictions


NORAD ID: 44323
Int'l Code: 2019-033B
Perigee: 595.9 km
Apogee: 598.1 km
Inclination: 97.8 °
Period: 96.5 minutes
Semi major axis: 6968 km
RCS: Unknown
Launch date: June 12, 2019
Source: Canada (CA)
Launch site: AIR FORCE WESTERN TEST RANGE (AFWTR)
Your satellite tracking list
Your tracking list is empty




NASA's NSSDC Master Catalog

Two Line Element Set (TLE):
1 44323U 19033B   26151.19629428 -.00000254  00000-0 -19311-4 0  9990
2 44323  97.7595 158.9748 0001528  90.3639 269.7755 14.92587798379569
Source of the keplerian elements: AFSPC